SCP
0 0 0 0 0 0 0 0 0 0 0 0 0 0 0 0 0 0 0 0 0 0 0 0 0 0 0 0 0 0 0 0 0 0 0 0 0 0 1 1 2 2 2 2
0 0 0 0 0 0 0 0 0 0 0 0 0 0 0 0 0 0 0 0 0 0 0 0 0 0 0 0 0 0 0 0 0 0 0 0 0 0 0 1 1 2 2 2
0 0 0 0 0 0 0 0 0 0 0 0 0 0 0 0 0 0 0 0 0 0 0 0 0 0 0 0 0 0 0 0 0 0 0 0 0 0 0 1 1 1 2 2
0 0 0 0 0 0 0 0 0 0 0 0 0 0 0 0 0 0 0 0 0 0 0 0 0 0 0 0 0 0 0 0 0 0 0 0 0 0 0 1 1 1 1 2
0 0 0 0 0 0 0 0 0 0 0 0 0 0 0 0 0 0 0 0 0 0 0 0 0 0 0 0 0 0 0 0 0 0 0 0 0 0 0 0 1 1 1 1
0 0 0 0 0 0 0 0 0 0 0 0 0 0 0 0 0 0 0 0 0 0 0 0 0 0 0 0 0 0 0 0 0 0 0 0 0 0 0 0 0 0 1 1
0 0 0 0 0 0 0 0 0 0 0 0 0 0 0 0 0 0 0 0 0 0 0 0 0 0 0 0 0 0 0 0 0 0 0 0 0 0 0 0 0 0 0 1
0 0 0 0 0 0 0 0 0 0 0 0 0 0 0 0 0 0 0 0 0 0 0 0 0 0 0 0 0 0 0 0 0 0 0 0 0 0 0 0 0 0 0 1
0 0 0 0 0 0 0 0 0 0 0 0 0 0 0 0 0 0 0 0 0 0 0 0 0 0 0 0 0 0 0 0 0 0 0 0 0 0 0 0 0 0 0 0
0 0 0 0 0 0 0 0 0 0 0 0 0 0 0 0 0 0 0 0 0 0 0 0 0 0 0 0 0 0 0 0 0 0 0 0 0 0 0 0 0 0 0 0
0 0 0 0 0 0 0 0 0 0 0 0 0 0 0 0 0 0 0 0 0 0 0 0 0 0 0 0 0 0 0 0 0 0 0 0 0 0 0 0 0 0 0 0
0 0 0 0 0 0 0 0 0 0 0 0 0 0 0 0 0 0 0 0 0 0 0 0 0 0 0 0 0 0 0 0 0 0 0 0 0 0 0 0 0 0 0 0
0 0 0 0 0 0 0 0 0 0 0 0 0 0 0 0 0 0 0 0 0 0 0 0 0 0 0 0 0 0 0 0 0 0 0 0 0 0 0 0 0 0 0 0
0 0 0 0 0 0 0 0 0 0 0 0 0 0 0 0 0 0 0 0 0 0 0 0 0 0 0 0 0 0 0 0 0 0 0 0 0 0 0 0 0 0 0 0
0 0 0 0 0 0 0 0 0 0 0 0 0 0 0 0 0 0 0 0 0 0 0 0 0 0 0 0 0 0 0 0 0 0 0 0 0 0 0 0 0 0 0 0
0 0 0 0 0 0 0 0 0 0 0 0 0 0 0 0 0 0 0 0 0 0 0 0 0 0 0 0 0 0 0 0 0 0 0 0 0 0 0 0 0 0 0 0
0 0 0 0 0 0 0 0 0 0 0 0 0 0 0 0 0 0 0 0 0 0 0 0 0 0 0 0 0 0 0 0 0 0 0 0 0 0 0 0 0 0 0 0
0 0 0 0 0 0 0 0 0 0 0 0 0 0 0 0 0 0 0 0 0 0 0 0 0 0 0 0 0 0 0 0 0 0 0 0 0 0 0 0 0 0 0 0
0 0 0 0 0 0 0 0 0 0 0 0 0 0 0 0 0 0 0 0 0 0 0 0 0 0 0 0 0 0 0 0 0 0 0 0 0 0 0 0 0 0 0 0
0 0 0 0 0 0 0 0 0 0 0 0 0 0 0 0 0 0 0 0 0 0 0 0 0 0 0 0 0 0 0 0 0 0 0 0 0 0 0 0 0 0 0 0
0 0 0 0 0 0 0 0 0 0 0 0 0 0 0 0 0 0 0 0 0 0 0 0 0 0 0 0 0 0 0 0 0 0 0 0 0 0 0 0 0 0 0 0
0 0 0 0 0 0 0 0 0 0 0 0 0 0 0 0 0 0 0 0 0 0 0 0 0 0 0 0 0 0 0 0 0 0 0 0 0 0 0 0 0 0 0 0
0 0 0 0 0 0 0 0 0 0 0 0 0 0 0 0 0 0 0 0 0 0 0 0 0 0 0 0 0 0 0 0 0 0 0 0 0 0 0 0 0 0 0 0
0 0 0 0 0 0 0 0 0 0 0 0 0 0 0 0 0 0 0 0 0 0 0 0 0 0 0 0 0 0 0 0 0 0 0 0 0 0 0 0 0 0 0 0
0 0 0 0 0 0 0 0 0 0 0 0 0 0 0 0 0 0 0 0 0 0 0 0 0 0 0 0 0 0 0 0 0 0 0 0 0 0 0 0 0 0 0 0
0 0 0 0 0 0 0 0 0 0 0 0 0 0 0 0 0 0 0 0 0 0 0 0 0 0 0 0 0 0 0 0 0 0 0 0 0 0 0 0 0 0 0 0
0 0 0 0 0 0 0 0 0 0 0 0 0 0 0 0 0 0 0 0 0 0 0 0 0 0 0 0 0 0 0 0 0 0 0 0 0 0 0 0 0 0 0 0
Wind_Speed
10 9 8 6 6 7 8 9 10 9 6 6 8 10 11 12 13 15 15 13 12 12 12 11 11 11 11 11 11 10 11 11 10 10 10 12 12 13 13 14 14 13 14 13
10 5 4 0 6 6 5 7 7 6 3 6 9 10 12 14 16 18 18 17 16 16 17 16 16 15 14 14 14 13 13 13 12 12 12 12 12 13 13 13 13 13 14 14
10 3 9 2 8 9 6 5 7 6 6 11 14 14 15 18 20 20 19 19 20 20 19 19 19 18 17 16 16 16 16 15 15 14 14 13 13 12 12 13 13 13 13 14
9 9 7 9 6 7 7 4 3 4 9 14 18 19 19 21 19 18 20 22 22 21 21 21 20 19 19 18 17 17 17 17 16 15 16 14 13 13 12 11 11 10 12 13
7 10 4 6 5 8 9 11 4 8 17 21 22 24 20 16 19 22 24 23 22 22 23 22 22 21 21 20 19 18 18 17 17 16 16 15 15 14 12 11 11 10 10 12
6 10 5 6 7 8 9 9 3 17 21 23 25 22 18 21 23 24 24 22 22 23 23 23 22 21 21 21 20 19 18 17 16 16 16 16 16 14 13 11 11 10 9 10
8 7 5 6 8 11 11 12 18 20 22 23 23 22 24 26 25 25 25 25 24 23 21 20 20 20 21 21 20 19 18 17 16 16 16 16 16 14 13 12 11 10 9 9
7 7 5 7 10 10 13 17 19 22 22 24 25 26 26 26 26 25 25 25 24 22 20 19 19 19 21 21 20 18 17 17 17 17 16 14 14 13 12 11 11 10 7 6
6 5 4 7 10 13 15 19 20 21 23 24 26 27 28 27 26 25 25 24 22 22 21 19 18 18 20 20 18 18 18 18 17 17 15 14 14 14 12 11 9 7 5 5
5 4 8 13 13 15 18 20 21 22 24 25 27 28 28 26 24 25 24 23 21 22 22 20 19 19 19 19 18 18 18 16 15 15 15 14 12 12 11 9 8 6 4 4
8 8 12 11 17 19 19 20 22 22 24 25 27 28 28 25 25 23 23 22 21 20 21 22 20 18 19 18 18 18 17 15 14 14 13 12 12 10 10 8 5 5 4 3
8 11 14 19 19 20 21 21 23 25 26 25 25 27 27 25 24 23 23 22 21 21 22 21 20 19 18 18 17 16 14 14 11 10 10 10 10 10 11 9 7 8 6 5
10 15 17 19 20 21 20 23 24 25 26 26 24 24 26 25 23 24 23 23 22 22 21 21 20 20 19 17 15 15 14 12 9 9 9 10 9 9 8 8 9 10 10 9
12 14 17 19 20 21 22 24 24 25 25 25 24 25 25 25 24 25 24 23 22 22 22 20 20 19 17 14 13 13 13 12 10 9 9 9 9 8 7 6 7 7 7 9
12 14 17 19 20 21 22 23 25 24 25 25 24 25 25 25 25 25 24 22 22 22 21 20 18 16 13 12 11 10 8 7 8 8 8 9 9 8 7 6 5 4 4 6
15 16 17 19 21 23 24 25 25 25 25 26 25 25 26 25 25 24 23 21 21 21 20 18 15 12 11 9 8 6 6 8 8 6 7 8 8 8 6 5 4 4 4 6
15 17 19 20 21 23 24 24 24 24 25 26 27 27 26 25 24 24 23 22 20 20 18 14 10 9 9 7 5 3 4 6 10 8 7 8 7 6 5 4 4 4 4 8
14 16 18 20 21 23 24 24 24 25 24 25 26 25 25 25 24 24 24 22 20 17 13 10 8 8 7 5 3 1 2 3 5 6 6 5 4 4 4 4 4 5 4 9
15 17 18 19 20 21 21 22 23 23 23 23 23 23 24 23 23 23 22 20 17 14 12 9 7 7 5 4 3 1 2 3 4 4 3 3 4 4 4 4 4 5 6 10
14 16 18 20 20 20 20 21 21 21 21 22 22 22 23 24 23 22 21 16 12 11 11 9 8 6 4 3 3 1 1 1 2 2 2 2 3 3 3 4 4 6 8 12
15 16 18 19 19 20 19 20 19 20 21 21 21 22 22 23 22 20 17 13 13 13 11 7 5 5 5 3 2 1 0 1 2 2 2 2 2 3 3 4 5 8 11 13
14 15 17 18 18 19 18 18 18 20 21 20 22 21 21 21 21 19 16 12 13 14 10 6 5 6 6 6 2 1 0 1 1 1 1 1 2 2 3 5 8 10 12 13
12 13 15 16 17 18 18 17 18 18 19 20 20 20 20 18 15 15 15 13 13 15 9 6 7 5 6 5 3 2 2 1 1 1 0 0 1 3 5 8 10 11 12 12
12 13 13 14 15 16 17 18 18 16 18 18 18 19 17 15 14 13 12 16 18 16 8 6 6 5 6 4 2 2 2 2 2 1 1 1 3 5 7 9 10 10 11 13
11 11 12 13 13 12 14 16 16 16 17 15 19 19 15 11 13 14 14 16 18 15 10 7 6 5 4 3 3 3 3 3 3 2 2 3 5 7 8 9 9 10 10 10
10 9 9 10 10 10 11 11 12 12 13 14 15 15 14 13 14 14 13 15 18 15 12 9 8 6 4 4 4 4 3 3 3 2 4 5 7 8 8 10 12 9 9 9
8 8 7 8 9 10 11 11 11 12 12 14 15 14 14 14 14 15 15 13 13 12 11 10 9 8 7 6 6 5 4 4 4 4 5 6 7 7 9 10 9 8 8 8
Wind_Direction
284 293 286 295 319 323 314 321 315 339 28 52 7 340 324 314 309 306 302 298 293 290 290 291 292 291 291 291 290 287 286 287 286 288 292 296 301 305 305 296 279 265 256 250
279 283 275 71 18 354 352 344 341 337 46 17 333 315 302 299 299 298 299 300 301 300 300 300 300 298 296 294 291 285 280 278 278 277 278 282 288 294 297 296 287 272 257 249
296 314 262 149 26 3 360 356 340 338 345 329 316 312 309 307 301 299 304 308 308 306 303 301 298 296 293 292 291 288 283 280 277 274 272 272 274 281 288 296 295 283 264 249
298 296 289 71 42 8 339 306 294 303 316 317 314 314 309 299 303 312 313 309 305 302 300 298 297 295 293 290 289 286 284 281 278 276 275 274 273 275 281 289 294 289 275 255
311 304 114 105 33 357 323 300 272 307 320 320 320 311 302 318 327 314 306 303 301 299 299 298 296 293 291 288 286 283 281 280 279 278 277 276 272 272 276 282 287 286 279 263
323 311 335 72 16 336 293 280 17 326 320 320 318 310 315 324 313 306 304 303 300 298 296 294 293 293 291 288 285 282 280 280 279 277 276 274 272 271 272 275 278 282 277 265
327 314 73 38 343 321 304 331 332 319 317 315 312 307 308 310 309 307 303 301 299 297 296 295 295 292 287 285 282 282 280 278 276 274 272 270 267 263 263 266 273 277 277 268
329 322 51 13 338 335 317 316 315 315 314 312 308 306 306 307 306 305 303 302 302 300 297 297 295 291 286 283 283 281 278 276 273 270 267 268 261 256 256 262 265 268 270 270
341 349 4 329 316 315 315 315 316 315 313 311 308 307 307 307 306 304 303 303 303 300 297 295 292 288 285 285 285 282 277 274 271 267 262 262 260 255 251 249 253 259 267 256
296 297 322 319 317 322 323 318 314 311 310 309 306 306 307 306 305 305 304 304 302 300 297 293 290 287 283 283 281 277 273 271 267 264 259 253 248 247 248 248 248 247 256 249
288 322 318 312 327 327 320 314 311 310 309 308 307 307 307 306 305 304 304 302 300 297 295 293 291 286 283 280 277 273 270 266 263 261 258 256 247 242 249 251 251 249 251 239
327 331 315 316 324 321 317 315 314 313 311 310 308 306 307 306 305 304 303 302 300 296 294 293 292 287 282 277 272 269 265 260 255 252 252 246 241 233 216 229 176 193 218 227
305 314 312 312 315 319 316 315 315 313 312 311 310 309 309 307 305 304 303 303 301 300 297 294 291 287 282 277 272 265 260 254 249 246 246 243 237 232 222 201 198 203 209 213
308 312 311 315 318 317 317 317 315 313 313 313 313 312 310 308 308 307 306 306 304 301 298 295 291 288 286 282 274 265 257 248 240 239 239 240 237 230 227 218 201 198 196 196
317 317 312 314 316 319 320 320 318 318 319 317 317 315 314 314 312 311 308 306 303 301 300 298 296 295 294 288 279 267 252 236 230 232 229 232 232 226 223 221 220 193 161 158
316 314 317 320 321 322 323 323 321 320 321 320 319 319 320 317 313 309 307 307 307 305 303 303 302 302 300 295 283 263 239 226 227 227 226 226 226 219 213 211 202 186 166 149
317 321 325 325 324 324 323 323 321 321 321 321 322 323 321 317 313 311 312 311 308 304 305 308 309 310 310 305 287 253 226 203 208 221 221 221 217 212 207 203 189 188 168 160
318 320 322 324 323 323 322 323 323 322 323 322 325 324 320 316 315 315 315 315 313 313 319 324 329 325 325 326 313 262 214 200 203 214 215 212 206 204 205 208 190 185 165 160
322 323 323 324 324 322 322 322 323 323 323 326 326 321 317 316 317 317 318 320 322 328 337 346 335 321 343 16 345 252 212 201 201 205 204 181 215 222 222 211 191 192 172 162
323 324 325 325 326 326 323 324 324 323 326 328 324 321 320 322 323 324 325 327 330 334 337 343 337 355 14 41 326 278 213 212 208 208 220 226 234 237 223 196 198 182 166 164
326 327 327 327 326 325 326 327 325 326 329 328 326 324 323 325 327 329 331 335 340 340 338 328 337 7 29 24 278 292 179 213 224 229 233 240 241 230 216 203 181 163 160 164
327 327 327 326 326 326 327 327 330 332 330 329 328 328 329 330 331 332 334 338 337 335 331 339 10 27 8 320 319 6 156 221 230 227 226 216 227 221 190 163 152 150 156 162
326 326 325 326 326 324 325 331 337 335 331 330 329 332 334 332 332 335 336 337 339 337 335 353 11 2 317 298 331 341 331 324 342 12 60 162 200 164 145 140 139 145 153 160
325 326 324 325 324 323 330 336 337 334 332 331 332 337 338 335 334 337 332 332 340 341 351 5 349 331 297 297 331 342 350 360 12 23 57 110 129 128 129 131 137 143 149 156
325 323 324 327 326 330 331 334 335 336 336 335 337 341 343 340 336 335 335 340 347 349 357 6 354 333 319 351 1 7 16 28 32 43 75 95 107 112 117 122 128 133 141 149
323 321 326 321 325 327 332 335 335 337 336 338 339 341 342 344 341 341 343 347 353 354 359 2 5 3 15 27 29 31 40 70 84 75 79 92 102 106 110 116 124 130 138 144
318 324 325 328 337 340 337 336 336 336 339 342 337 340 345 347 346 346 349 352 355 356 359 1 6 11 20 30 38 47 61 70 75 83 90 98 104 108 113 114 114 119 126 130